Location: Bremen
(53.0793°N, 8.8017°E)
Time: 12:38:48
(UTC+01:00)

Transit 2A - Pass Details

Date: 03 December 2021
Orbit: 591 x 967 km, 66.7° (Epoch: 23 January)

Event Time Altitude Azimuth Distance (km) Brightness Sun altitude
Exits shadow 03:50:44 21° 20° (NNE) 2,017 8.4 -38.9°
Drops below altitude 10° 03:53:20 10° 39° (NE) 2,709 9.3 -38.5°
Sets 03:56:20 0° 50° (NE) 3,665 10.3 -38.1°
